Total_Precipitation_Accumulation
0.06 0.14 0.21 0.22 0.20 0.17 0.13 0.11 0.22 0.26 0.33 0.39 0.48 0.40 0.32 0.30 0.26 0.29 0.34 0.31 0.25 0.26 0.35 0.38 0.41 0.38 0.39 0.43 0.47 0.63 1.00 1.19 1.18 1.13 1.09 1.04 1.01 1.07 1.14 1.21 1.27 1.45 1.62 1.75
0.10 0.13 0.15 0.16 0.19 0.16 0.11 0.09 0.09 0.15 0.27 0.30 0.40 0.40 0.37 0.33 0.28 0.34 0.39 0.34 0.29 0.27 0.36 0.42 0.45 0.46 0.45 0.46 0.49 0.61 0.88 1.08 1.09 1.03 0.98 0.91 0.94 1.06 1.23 1.33 1.45 1.60 1.64 1.62
0.15 0.18 0.17 0.24 0.20 0.16 0.14 0.12 0.13 0.21 0.31 0.30 0.35 0.41 0.43 0.46 0.43 0.37 0.41 0.36 0.29 0.30 0.40 0.53 0.51 0.53 0.56 0.52 0.51 0.64 0.86 1.02 1.09 1.06 1.08 1.04 1.01 1.18 1.38 1.51 1.59 1.66 1.65 1.58
0.21 0.25 0.35 0.26 0.20 0.21 0.23 0.25 0.26 0.28 0.31 0.34 0.41 0.42 0.50 0.58 0.53 0.42 0.43 0.44 0.42 0.39 0.44 0.54 0.53 0.56 0.60 0.58 0.61 0.73 0.90 1.07 1.14 1.10 1.16 1.24 1.26 1.35 1.57 1.75 1.80 1.79 1.77 1.71
0.30 0.33 0.39 0.36 0.28 0.33 0.36 0.40 0.41 0.44 0.38 0.43 0.44 0.48 0.58 0.54 0.53 0.55 0.54 0.53 0.57 0.60 0.57 0.59 0.61 0.64 0.65 0.68 0.74 0.86 0.93 1.06 1.17 1.24 1.36 1.41 1.45 1.62 1.81 1.93 1.91 1.86 1.88 1.86
0.43 0.50 0.55 0.55 0.40 0.35 0.41 0.68 0.53 0.54 0.54 0.49 0.51 0.71 0.74 0.57 0.53 0.52 0.52 0.57 0.59 0.67 0.70 0.72 0.72 0.76 0.81 0.87 1.00 1.15 1.23 1.29 1.47 1.67 1.85 1.94 1.98 2.04 2.07 2.12 2.01 1.96 1.91 1.89
0.63 0.73 0.66 0.51 0.45 0.40 0.75 1.04 0.77 0.75 0.72 0.63 0.74 0.81 0.76 0.62 0.52 0.50 0.49 0.53 0.59 0.63 0.71 0.74 0.77 0.91 1.07 1.13 1.24 1.37 1.49 1.56 1.77 2.09 2.27 2.24 2.23 2.19 2.14 2.15 2.15 2.12 2.04 2.01
0.83 1.03 1.05 0.59 0.56 0.83 1.04 0.89 0.91 0.93 0.90 0.84 0.82 0.86 0.81 0.75 0.57 0.48 0.49 0.51 0.57 0.61 0.66 0.76 0.88 1.09 1.34 1.42 1.40 1.48 1.67 1.87 2.09 2.33 2.30 2.20 2.35 2.29 2.27 2.33 2.31 2.21 2.16 2.09
1.04 1.20 1.01 0.71 0.83 1.01 0.98 0.94 0.94 0.94 0.90 0.81 0.75 0.87 0.81 0.70 0.64 0.50 0.46 0.52 0.57 0.63 0.73 0.82 1.00 1.32 1.58 1.64 1.68 1.71 1.83 2.00 2.11 2.22 2.40 2.54 2.59 2.51 2.42 2.38 2.34 2.19 2.11 1.99
1.17 1.26 1.08 0.92 0.92 0.91 0.95 0.94 0.88 0.81 0.78 0.79 0.74 0.72 0.70 0.61 0.56 0.53 0.52 0.54 0.60 0.68 0.82 1.00 1.16 1.44 1.58 1.62 1.64 1.67 1.69 1.71 1.84 2.02 2.18 2.27 2.49 2.56 2.48 2.34 2.28 2.24 2.12 1.99
1.40 1.49 1.33 1.21 1.04 0.93 0.94 0.90 0.89 0.87 0.81 0.77 0.71 0.65 0.56 0.52 0.51 0.53 0.52 0.56 0.65 0.74 0.85 0.97 1.13 1.31 1.35 1.46 1.55 1.65 1.63 1.59 1.61 1.66 1.78 1.88 2.00 2.13 2.14 2.16 1.99 1.89 1.77 1.71
1.45 1.32 1.24 1.35 1.18 1.01 0.96 0.97 1.03 1.09 1.09 0.93 0.77 0.70 0.64 0.57 0.52 0.49 0.49 0.55 0.65 0.76 0.87 0.96 1.09 1.28 1.34 1.43 1.52 1.58 1.56 1.50 1.52 1.54 1.62 1.70 1.74 1.71 1.56 1.50 1.35 1.22 1.18 1.13
1.02 1.04 1.09 1.19 1.13 1.10 1.14 1.21 1.27 1.25 1.12 0.89 0.73 0.67 0.61 0.55 0.50 0.49 0.51 0.60 0.72 0.79 0.87 0.93 1.00 1.16 1.33 1.47 1.59 1.67 1.59 1.45 1.36 1.32 1.38 1.42 1.51 1.65 1.71 1.50 1.29 1.11 0.99 0.86
0.93 1.04 1.19 1.24 1.24 1.16 1.17 1.28 1.27 1.11 1.01 0.87 0.70 0.62 0.56 0.48 0.42 0.39 0.42 0.51 0.60 0.69 0.75 0.80 0.89 1.00 1.17 1.33 1.44 1.49 1.48 1.37 1.27 1.26 1.31 1.36 1.44 1.55 1.68 1.68 1.43 1.10 0.95 0.83
0.96 1.02 1.14 1.14 1.16 1.21 1.21 1.21 1.23 1.16 1.00 0.95 0.86 0.75 0.64 0.57 0.52 0.50 0.49 0.54 0.63 0.71 0.74 0.79 0.91 0.98 1.13 1.30 1.37 1.34 1.29 1.21 1.15 1.20 1.23 1.22 1.29 1.36 1.42 1.46 1.37 1.20 1.00 0.81
1.10 1.00 1.07 1.11 1.07 1.07 1.04 1.01 1.01 0.98 0.90 0.84 0.78 0.72 0.67 0.61 0.57 0.55 0.58 0.70 0.89 0.92 0.88 0.89 0.92 0.95 1.12 1.31 1.35 1.30 1.19 1.03 0.95 1.00 1.05 1.07 1.13 1.18 1.21 1.26 1.24 1.17 1.05 0.80
1.14 1.12 1.09 1.04 1.00 0.98 0.87 0.78 0.78 0.76 0.79 0.79 0.71 0.61 0.55 0.52 0.54 0.58 0.66 0.75 0.83 0.83 0.83 0.90 0.88 0.86 1.02 1.20 1.28 1.24 1.13 0.97 0.74 0.70 0.78 0.85 0.95 1.04 1.07 1.08 1.10 1.09 0.93 0.67
0.91 0.92 0.93 0.90 0.90 0.87 0.82 0.71 0.64 0.61 0.61 0.64 0.62 0.57 0.54 0.56 0.67 0.78 0.84 0.86 0.82 0.73 0.70 0.74 0.71 0.74 0.88 0.95 1.01 1.08 1.01 0.92 0.77 0.68 0.71 0.75 0.83 0.94 0.96 0.93 0.92 0.90 0.79 0.59
0.76 0.73 0.75 0.75 0.70 0.63 0.63 0.62 0.60 0.56 0.52 0.54 0.56 0.57 0.61 0.68 0.80 0.90 0.95 1.03 1.06 0.93 0.76 0.66 0.63 0.65 0.77 0.79 0.82 0.94 0.94 0.86 0.75 0.69 0.71 0.70 0.74 0.85 0.86 0.81 0.78 0.73 0.65 0.57
0.76 0.71 0.74 0.71 0.63 0.56 0.53 0.50 0.49 0.47 0.49 0.52 0.57 0.63 0.72 0.82 0.93 1.03 1.08 1.11 1.11 1.06 0.84 0.68 0.62 0.62 0.66 0.72 0.78 0.81 0.84 0.80 0.69 0.64 0.66 0.71 0.71 0.73 0.70 0.66 0.63 0.60 0.55 0.54
0.78 0.79 0.77 0.71 0.64 0.56 0.48 0.45 0.44 0.47 0.53 0.58 0.65 0.72 0.84 0.96 1.03 1.12 1.30 1.30 1.06 0.93 0.79 0.68 0.61 0.60 0.62 0.68 0.73 0.77 0.81 0.82 0.72 0.62 0.61 0.64 0.65 0.66 0.64 0.62 0.58 0.52 0.51 0.51
0.73 0.75 0.67 0.60 0.57 0.56 0.48 0.42 0.44 0.53 0.66 0.73 0.71 0.75 0.89 0.99 1.09 1.19 1.24 1.35 1.21 1.05 0.79 0.63 0.55 0.53 0.53 0.60 0.63 0.70 0.74 0.76 0.70 0.61 0.57 0.58 0.59 0.66 0.68 0.62 0.56 0.49 0.48 0.50
0.61 0.63 0.60 0.53 0.49 0.50 0.47 0.43 0.44 0.54 0.70 0.82 0.84 0.87 0.99 1.00 1.10 1.39 1.44 1.26 1.17 1.04 0.73 0.58 0.54 0.46 0.42 0.46 0.55 0.62 0.65 0.66 0.65 0.55 0.48 0.47 0.50 0.57 0.62 0.59 0.57 0.49 0.48 0.46
0.56 0.52 0.54 0.51 0.45 0.46 0.47 0.46 0.48 0.54 0.61 0.67 0.70 0.76 0.91 0.96 0.96 1.01 1.19 1.29 1.21 1.04 0.76 0.62 0.52 0.42 0.37 0.37 0.50 0.61 0.63 0.63 0.61 0.49 0.41 0.40 0.44 0.53 0.56 0.56 0.54 0.49 0.47 0.45
0.58 0.51 0.46 0.46 0.49 0.56 0.59 0.61 0.67 0.69 0.68 0.67 0.60 0.59 0.69 0.83 0.94 0.89 0.90 1.01 1.12 1.00 0.82 0.69 0.57 0.51 0.42 0.39 0.48 0.58 0.62 0.61 0.54 0.47 0.44 0.48 0.54 0.57 0.54 0.52 0.51 0.48 0.48 0.48
0.61 0.54 0.48 0.44 0.48 0.56 0.67 0.80 0.93 0.94 0.93 0.91 0.75 0.59 0.59 0.65 0.69 0.74 0.80 0.84 0.89 0.90 0.81 0.75 0.65 0.58 0.52 0.50 0.53 0.59 0.65 0.67 0.59 0.53 0.55 0.61 0.61 0.59 0.58 0.53 0.47 0.46 0.45 0.43
0.57 0.50 0.46 0.47 0.54 0.61 0.72 0.85 1.01 1.06 1.04 1.05 0.90 0.66 0.57 0.58 0.59 0.63 0.70 0.77 0.79 0.80 0.79 0.75 0.68 0.59 0.53 0.53 0.56 0.57 0.62 0.65 0.62 0.60 0.59 0.60 0.61 0.61 0.58 0.53 0.49 0.48 0.47 0.44